Madison, SD

1:58 AM CST on January 21, 2018 (GMT -0600)
Madison Municipal

Weather History for KMDS - February, 2012

Change the Weather History Date:

Thursday, February 16, 2012

  Actual Average Record
Temperature  
Mean Temperature 28 °F -  
Max Temperature 39 °F 24 °F 59 °F (2017)
Min Temperature 17 °F 6 °F -2 °F (2014)
Degree Days  
Heating Degree Days 37    
Moisture  
Dew Point 23 °F    
Average Humidity 84    
Maximum Humidity 100    
Minimum Humidity 36    
Precipitation  
Precipitation 0.00 in - - ()
Sea Level Pressure  
Sea Level Pressure 30.07 in    
Wind  
Wind Speed 10 mph (WSW)    
Max Wind Speed 16 mph    
Max Gust Speed 24 mph    
Visibility 10 miles    
Events      
Averages and records for this station are not official NWS values.
T = Trace of Precipitation, MM = Missing Value Source: NWS Daily Summary

Daily Weather History Graph

Daily Weather History Graph

Search for Another Location

Airport or City:

Trip Planner

Search our weather history database for the weather conditions in past years. The results will help you decide how hot, cold, wet, or windy it might be!

Date:

Astronomy

Feb. 16, 2012 Rise Set
Actual Time 7:26 AM CST 5:58 PM CST
Civil Twilight 6:57 AM CST 6:28 PM CST
Nautical Twilight 6:23 AM CST 7:02 PM CST
Astronomical Twilight 5:50 AM CST 7:35 PM CST
Moon 3:30 AM CST (2/16) 12:44 PM CST (2/16)
Length of Visible Light 11h 31m
Length of Day
10h 32m
Waning Crescent, 28% of the Moon is Illuminated
Feb 16
Waning Crescent
Feb 21
New
Feb 29
First Quarter
Mar 8
Full
Mar 14
Last Quarter

Hourly Weather History & Observations

Time (CST) Temp. Windchill Dew Point Humidity Pressure Visibility Wind Dir Wind Speed Gust Speed Precip Events Conditions
12:25 AM 24.8 °F 16.9 °F 24.8 °F 100% 30.06 in 10.0 mi WSW 6.9 mph - N/A   Clear
12:45 AM 23.0 °F 13.1 °F 23.0 °F 100% 30.07 in 10.0 mi SW 9.2 mph - N/A   Clear
1:05 AM 23.0 °F 12.4 °F 23.0 °F 100% 30.08 in 10.0 mi WSW 10.4 mph - N/A   Clear
1:25 AM 23.0 °F 13.1 °F 23.0 °F 100% 30.08 in 10.0 mi WSW 9.2 mph - N/A   Clear
1:45 AM 23.0 °F 13.1 °F 23.0 °F 100% 30.08 in 10.0 mi WSW 9.2 mph - N/A   Clear
2:05 AM 23.0 °F 12.4 °F 23.0 °F 100% 30.08 in 10.0 mi WSW 10.4 mph - N/A   Clear
2:25 AM 23.0 °F 12.4 °F 23.0 °F 100% 30.08 in 10.0 mi WSW 10.4 mph - N/A   Clear
2:45 AM 24.8 °F 14.6 °F 24.8 °F 100% 30.08 in 10.0 mi WSW 10.4 mph - N/A   Clear
3:05 AM 24.8 °F 14.6 °F 24.8 °F 100% 30.08 in 10.0 mi WSW 10.4 mph - N/A   Clear
3:25 AM 24.8 °F 14.0 °F 24.8 °F 100% 30.08 in 10.0 mi West 11.5 mph - N/A   Clear
3:45 AM 23.0 °F 12.4 °F 23.0 °F 100% 30.07 in 10.0 mi WSW 10.4 mph - N/A   Clear
4:05 AM 23.0 °F 12.4 °F 23.0 °F 100% 30.07 in 10.0 mi West 10.4 mph - N/A   Clear
4:25 AM 23.0 °F 12.4 °F 23.0 °F 100% 30.07 in 10.0 mi West 10.4 mph - N/A   Clear
4:45 AM 21.2 °F 10.9 °F 21.2 °F 100% 30.08 in 10.0 mi West 9.2 mph - N/A   Clear
5:05 AM 21.2 °F 10.9 °F 21.2 °F 100% 30.08 in 10.0 mi West 9.2 mph - N/A   Clear
5:25 AM 19.4 °F 8.6 °F 19.4 °F 100% 30.09 in 10.0 mi West 9.2 mph - N/A   Clear
5:45 AM 19.4 °F 8.6 °F 19.4 °F 100% 30.09 in 10.0 mi West 9.2 mph - N/A   Clear
6:05 AM 19.4 °F 7.9 °F 19.4 °F 100% 30.10 in 10.0 mi WNW 10.4 mph - N/A   Clear
6:25 AM 19.4 °F 8.6 °F 19.4 °F 100% 30.10 in 10.0 mi WNW 9.2 mph - N/A   Clear
6:45 AM 19.4 °F 7.9 °F 19.4 °F 100% 30.11 in 10.0 mi WNW 10.4 mph - N/A   Clear
7:05 AM 17.6 °F 5.7 °F 17.6 °F 100% 30.12 in 10.0 mi WNW 10.4 mph - N/A   Clear
7:25 AM 17.6 °F 6.4 °F 17.6 °F 100% 30.12 in 10.0 mi WNW 9.2 mph - N/A   Clear
7:45 AM 19.4 °F 9.5 °F 19.4 °F 100% 30.13 in 10.0 mi WNW 8.1 mph - N/A   Clear
8:05 AM 19.4 °F 8.6 °F 19.4 °F 100% 30.14 in 10.0 mi WNW 9.2 mph - N/A   Clear
8:25 AM 21.2 °F 9.5 °F 21.2 °F 100% 30.15 in 10.0 mi WNW 11.5 mph - N/A   Clear
8:45 AM 23.0 °F 11.7 °F 23.0 °F 100% 30.16 in 10.0 mi WNW 11.5 mph - N/A   Clear
9:05 AM 24.8 °F 13.4 °F 24.8 °F 100% 30.15 in 10.0 mi WNW 12.7 mph - N/A   Clear
9:25 AM 24.8 °F 12.4 °F 24.8 °F 100% 30.15 in 10.0 mi WNW 15.0 mph - N/A   Clear
9:45 AM 26.6 °F 15.7 °F 26.6 °F 100% 30.16 in 10.0 mi WNW 12.7 mph - N/A   Clear
10:05 AM 28.4 °F 18.5 °F 26.6 °F 93% 30.16 in 10.0 mi WNW 11.5 mph - N/A   Clear
10:25 AM 28.4 °F 18.0 °F 26.6 °F 93% 30.15 in 10.0 mi WNW 12.7 mph - N/A   Clear
10:45 AM 30.2 °F 21.3 °F 28.4 °F 93% 30.15 in 10.0 mi WNW 10.4 mph - N/A   Clear
11:05 AM 32.0 °F 22.5 °F 26.6 °F 80% 30.15 in 10.0 mi West 12.7 mph 20.7 mph N/A   Clear
11:25 AM 32.0 °F 23.6 °F 26.6 °F 80% 30.14 in 10.0 mi West 10.4 mph - N/A   Clear
11:45 AM 32.0 °F 22.5 °F 26.6 °F 80% 30.14 in 10.0 mi WNW 12.7 mph - N/A   Clear
12:05 PM 32.0 °F 21.2 °F 24.8 °F 75% 30.13 in 10.0 mi WNW 16.1 mph 24.2 mph N/A   Clear
12:25 PM 33.8 °F 25.3 °F 24.8 °F 70% 30.13 in 10.0 mi West 11.5 mph - N/A   Clear
12:45 PM 33.8 °F 24.3 °F 24.8 °F 70% 30.12 in 10.0 mi West 13.8 mph 18.4 mph N/A   Clear
1:05 PM 35.6 °F 27.5 °F 23.0 °F 60% 30.11 in 10.0 mi WNW 11.5 mph 16.1 mph N/A   Clear
1:25 PM 35.6 °F 28.0 °F 23.0 °F 60% 30.10 in 10.0 mi West 10.4 mph 18.4 mph N/A   Clear
1:45 PM 37.4 °F 29.8 °F 21.2 °F 52% 30.10 in 10.0 mi West 11.5 mph 17.3 mph N/A   Clear
2:05 PM 37.4 °F 30.8 °F 19.4 °F 48% 30.08 in 10.0 mi West 9.2 mph 16.1 mph N/A   Clear
2:25 PM 39.2 °F 32.5 °F 17.6 °F 42% 30.08 in 10.0 mi WNW 10.4 mph 18.4 mph N/A   Clear
3:05 PM 39.2 °F 33.0 °F 15.8 °F 39% 30.06 in 10.0 mi West 9.2 mph - N/A   Clear
3:45 PM 39.2 °F 33.0 °F 14.0 °F 36% 30.06 in 10.0 mi West 9.2 mph 19.6 mph N/A   Clear
4:05 PM 39.2 °F 31.6 °F 15.8 °F 39% 30.05 in 10.0 mi West 12.7 mph 16.1 mph N/A   Clear
4:25 PM 39.2 °F 31.2 °F 15.8 °F 39% 30.04 in 10.0 mi WSW 13.8 mph - N/A   Clear
4:45 PM 39.2 °F 32.5 °F 17.6 °F 42% 30.04 in 10.0 mi WSW 10.4 mph - N/A   Clear
5:05 PM 39.2 °F 33.0 °F 19.4 °F 45% 30.04 in 10.0 mi SW 9.2 mph - N/A   Clear
5:25 PM 37.4 °F 32.1 °F 19.4 °F 48% 30.03 in 10.0 mi SW 6.9 mph - N/A   Clear
6:05 PM 32.0 °F 25.6 °F 23.0 °F 69% 30.03 in 10.0 mi SSW 6.9 mph - N/A   Clear
6:25 PM 33.8 °F 28.6 °F 21.2 °F 60% 30.03 in 10.0 mi South 5.8 mph - N/A   Clear
6:45 PM 32.0 °F 25.6 °F 23.0 °F 69% 30.02 in 10.0 mi South 6.9 mph - N/A   Clear
7:05 PM 32.0 °F 26.4 °F 21.2 °F 64% 30.02 in 10.0 mi South 5.8 mph - N/A   Clear
7:25 PM 30.2 °F 23.4 °F 23.0 °F 75% 30.01 in 10.0 mi South 6.9 mph - N/A   Clear
7:45 PM 32.0 °F 23.0 °F 23.0 °F 69% 30.01 in 10.0 mi SSE 11.5 mph - N/A   Clear
8:05 PM 32.0 °F 23.6 °F 23.0 °F 69% 30.00 in 10.0 mi South 10.4 mph - N/A   Clear
8:25 PM 30.2 °F 23.4 °F 26.6 °F 86% 30.00 in 10.0 mi South 6.9 mph - N/A   Clear
8:45 PM 30.2 °F 21.3 °F 28.4 °F 93% 29.99 in 10.0 mi South 10.4 mph - N/A   Clear
9:05 PM 28.4 °F 20.4 °F 28.4 °F 100% 29.99 in 10.0 mi South 8.1 mph - N/A   Clear
9:25 PM 30.2 °F 20.2 °F 28.4 °F 93% 29.98 in 10.0 mi South 12.7 mph - N/A   Partly Cloudy
9:45 PM 30.2 °F 20.8 °F 28.4 °F 93% 29.98 in 10.0 mi SSE 11.5 mph - N/A   Mostly Cloudy
10:05 PM 30.2 °F 21.3 °F 30.2 °F 100% 29.97 in 10.0 mi South 10.4 mph - N/A   Overcast
10:25 PM 28.4 °F 19.1 °F 28.4 °F 100% 29.96 in 10.0 mi South 10.4 mph - N/A   Scattered Clouds
10:45 PM 30.2 °F 20.2 °F 30.2 °F 100% 29.96 in 10.0 mi SSW 12.7 mph - N/A   Clear
11:05 PM 28.4 °F 18.5 °F 28.4 °F 100% 29.95 in 10.0 mi SSW 11.5 mph - N/A   Clear
11:25 PM 28.4 °F 18.5 °F 28.4 °F 100% 29.94 in 10.0 mi SSW 11.5 mph - N/A   Clear
11:45 PM 28.4 °F 19.1 °F 28.4 °F 100% 29.94 in 10.0 mi SSW 10.4 mph - N/A   Clear